Weather History for KCMR - August, 2013

Change the Weather History Date:

Monday, August 19, 2013

  Actual Average (KFLG) Record (KFLG)
Temperature  
Mean Temperature 66 °F 64 °F  
Max Temperature 80 °F 78 °F 88 °F (1973)
Min Temperature 53 °F 50 °F 35 °F (1979)
Degree Days  
Heating Degree Days 0 2  
Month to date heating degree days 25  
Since 1 July heating degree days 57  
Cooling Degree Days 2 1  
Month to date cooling degree days 26  
Year to date cooling degree days 107  
Growing Degree Days 16 (Base 50)    
Moisture  
Dew Point 51 °F    
Average Humidity 69    
Maximum Humidity 100    
Minimum Humidity 32    
Precipitation  
Precipitation 0.03 in 0.10 in 0.90 in (1984)
Month to date precipitation 1.99  
Year to date precipitation 13.07  
Sea Level Pressure  
Sea Level Pressure 30.40 in    
Wind  
Wind Speed 4 mph (SSE)    
Max Wind Speed 17 mph    
Max Gust Speed 23 mph    
Visibility 10 miles    
Events      
T = Trace of Precipitation, MM = Missing Value Source: NWS Daily Summary

Daily Weather History Graph

Daily Weather History Graph

Search for Another Location

Airport or City:

Trip Planner

Search our weather history database for the weather conditions in past years. The results will help you decide how hot, cold, wet, or windy it might be!

Date:

Astronomy

Aug. 19, 2013 Rise Set
Actual Time 5:51 AM MST 7:12 PM MST
Civil Twilight 5:24 AM MST 7:38 PM MST
Nautical Twilight 4:53 AM MST 8:10 PM MST
Astronomical Twilight 4:19 AM MST 8:43 PM MST
Moon 6:06 PM MST (8/19) 4:16 AM MST (8/19)
Length of Visible Light 14h 13m
Length of Day
13h 20m
Waxing Gibbous, 98% of the Moon is Illuminated
Aug 19
Waxing Gibbous
Aug 20
Full
Aug 28
Last Quarter
Sep 5
New
Sep 12
First Quarter

Hourly Weather History & Observations

Time (MST) Temp. Dew Point Humidity Pressure Visibility Wind Dir Wind Speed Gust Speed Precip Events Conditions
12:15 AM 62.6 °F 50.0 °F 63% 30.41 in 10.0 mi SSW 3.5 mph - N/A   Mostly Cloudy
12:35 AM 62.6 °F 50.0 °F 63% 30.42 in 10.0 mi SW 3.5 mph - N/A   Mostly Cloudy
12:55 AM 62.6 °F 50.0 °F 63% 30.42 in 10.0 mi South 6.9 mph - N/A   Mostly Cloudy
1:15 AM 62.6 °F 50.0 °F 63% 30.41 in 10.0 mi East 4.6 mph - N/A   Scattered Clouds
1:35 AM 62.6 °F 48.2 °F 59% 30.40 in 10.0 mi SSE 5.8 mph - N/A   Clear
1:55 AM 60.8 °F 50.0 °F 68% 30.41 in 10.0 mi SSE 4.6 mph - N/A   Partly Cloudy
2:15 AM 60.8 °F 48.2 °F 63% 30.41 in 10.0 mi South 4.6 mph - N/A   Scattered Clouds
2:35 AM 60.8 °F 50.0 °F 68% 30.41 in 10.0 mi SSE 3.5 mph - N/A   Partly Cloudy
2:55 AM 59.0 °F 48.2 °F 67% 30.41 in 10.0 mi Calm Calm - N/A   Partly Cloudy
3:15 AM 62.6 °F 48.2 °F 59% 30.41 in 10.0 mi West 5.8 mph - N/A   Mostly Cloudy
3:35 AM 59.0 °F 50.0 °F 72% 30.41 in 10.0 mi North 3.5 mph - N/A   Partly Cloudy
3:55 AM 57.2 °F 50.0 °F 77% 30.41 in 10.0 mi Calm Calm - N/A   Partly Cloudy
4:15 AM 59.0 °F 50.0 °F 72% 30.41 in 10.0 mi Calm Calm - N/A   Mostly Cloudy
4:35 AM 55.4 °F 50.0 °F 82% 30.41 in 10.0 mi Calm Calm - N/A   Scattered Clouds
4:55 AM 55.4 °F 50.0 °F 82% 30.41 in 10.0 mi Calm Calm - N/A   Clear
5:15 AM 55.4 °F 50.0 °F 82% 30.41 in 10.0 mi Calm Calm - N/A   Clear
5:35 AM 55.4 °F 48.2 °F 77% 30.42 in 10.0 mi Calm Calm - N/A   Clear
5:55 AM 55.4 °F 48.2 °F 77% 30.43 in 10.0 mi Calm Calm - N/A   Clear
6:15 AM 57.2 °F 48.2 °F 72% 30.44 in 10.0 mi Calm Calm - N/A   Clear
6:35 AM 55.4 °F 50.0 °F 82% 30.43 in 10.0 mi Calm Calm - N/A   Clear
6:55 AM 59.0 °F 48.2 °F 67% 30.43 in 10.0 mi Calm Calm - N/A   Clear
7:15 AM 62.6 °F 50.0 °F 63% 30.44 in 10.0 mi Calm Calm - N/A   Clear
7:35 AM 64.4 °F 50.0 °F 59% 30.44 in 10.0 mi ENE 3.5 mph - N/A   Clear
7:55 AM 66.2 °F 48.2 °F 52% 30.44 in 10.0 mi ENE 3.5 mph - N/A   Clear
8:15 AM 66.2 °F 48.2 °F 52% 30.44 in 10.0 mi North 4.6 mph - N/A   Clear
8:35 AM 68.0 °F 48.2 °F 49% 30.44 in 10.0 mi NNE 5.8 mph - N/A   Clear
8:55 AM 69.8 °F 48.2 °F 46% 30.43 in 10.0 mi NE 4.6 mph - N/A   Clear
9:15 AM 71.6 °F 46.4 °F 41% 30.43 in 10.0 mi NE 3.5 mph - N/A   Clear
9:35 AM 73.4 °F 48.2 °F 41% 30.42 in 10.0 mi East 3.5 mph - N/A   Partly Cloudy
9:55 AM 75.2 °F 48.2 °F 38% 30.42 in 10.0 mi Calm Calm - N/A   Clear
10:15 AM 77.0 °F 48.2 °F 36% 30.42 in 10.0 mi NNW 4.6 mph - N/A   Clear
10:35 AM 77.0 °F 48.2 °F 36% 30.42 in 10.0 mi NE 4.6 mph - N/A   Clear
10:55 AM 77.0 °F 46.4 °F 34% 30.42 in 10.0 mi East 4.6 mph - N/A   Clear
11:15 AM 78.8 °F 46.4 °F 32% 30.41 in 10.0 mi SW 3.5 mph - N/A   Clear
11:35 AM 80.6 °F 48.2 °F 32% 30.40 in 10.0 mi NW 5.8 mph - N/A   Partly Cloudy
11:55 AM 78.8 °F 48.2 °F 34% 30.40 in 10.0 mi WNW 6.9 mph - N/A   Scattered Clouds
12:15 PM 77.0 °F 48.2 °F 36% 30.40 in 10.0 mi SW 10.4 mph - N/A   Scattered Clouds
12:35 PM 73.4 °F 44.6 °F 36% 30.40 in 10.0 mi SSW 17.3 mph 21.9 mph N/A   Mostly Cloudy
12:55 PM 68.0 °F 48.2 °F 49% 30.40 in 9.0 mi SSW 6.9 mph - N/A   Mostly Cloudy
1:15 PM 68.0 °F 50.0 °F 52% 30.40 in 10.0 mi SW 5.8 mph - N/A   Mostly Cloudy
1:35 PM 69.8 °F 50.0 °F 49% 30.41 in 10.0 mi ENE 9.2 mph 19.6 mph N/A   Overcast
1:55 PM 64.4 °F 53.6 °F 68% 30.43 in 10.0 mi SE 9.2 mph - N/A   Mostly Cloudy
2:15 PM 62.6 °F 53.6 °F 72% 30.42 in 8.0 mi ESE 12.7 mph 23.0 mph 0.01 in   Mostly Cloudy
2:35 PM 60.8 °F 53.6 °F 77% 30.44 in 10.0 mi South 5.8 mph - 0.01 in   Mostly Cloudy
2:55 PM 59.0 °F 53.6 °F 82% 30.41 in 9.0 mi South 9.2 mph - 0.02 in   Mostly Cloudy
3:15 PM 60.8 °F 55.4 °F 82% 30.39 in 10.0 mi Calm Calm - N/A   Overcast
3:35 PM 62.6 °F 55.4 °F 77% 30.38 in 8.0 mi Calm Calm - 0.01 in   Mostly Cloudy
3:55 PM 60.8 °F 55.4 °F 82% 30.40 in 10.0 mi South 9.2 mph - 0.01 in   Mostly Cloudy
4:15 PM 62.6 °F 53.6 °F 72% 30.39 in 10.0 mi SW 10.4 mph - N/A   Scattered Clouds
4:35 PM 62.6 °F 53.6 °F 72% 30.37 in 10.0 mi WSW 6.9 mph - N/A   Clear
4:55 PM 64.4 °F 51.8 °F 64% 30.37 in 10.0 mi Calm Calm - N/A   Clear
5:15 PM 62.6 °F 55.4 °F 77% 30.38 in 10.0 mi Calm Calm - N/A   Clear
5:35 PM 62.6 °F 55.4 °F 77% 30.37 in 10.0 mi Calm Calm - N/A   Clear
5:55 PM 62.6 °F 57.2 °F 82% 30.37 in 10.0 mi NNE 3.5 mph - N/A   Clear
6:15 PM 62.6 °F 55.4 °F 77% 30.36 in 10.0 mi NE 3.5 mph - N/A   Partly Cloudy
6:35 PM 62.6 °F 57.2 °F 82% 30.36 in 10.0 mi Calm Calm - N/A   Scattered Clouds
6:55 PM 62.6 °F 57.2 °F 82% 30.36 in 10.0 mi Calm Calm - N/A   Clear
7:15 PM 62.6 °F 57.2 °F 82% 30.36 in 10.0 mi Calm Calm - N/A   Partly Cloudy
7:35 PM 60.8 °F 57.2 °F 88% 30.36 in 10.0 mi ESE 3.5 mph - N/A   Partly Cloudy
7:55 PM 59.0 °F 57.2 °F 94% 30.36 in 10.0 mi SE 5.8 mph - N/A   Scattered Clouds
8:15 PM 59.0 °F 57.2 °F 94% 30.36 in 10.0 mi SSE 5.8 mph - N/A   Partly Cloudy
8:35 PM 59.0 °F 55.4 °F 88% 30.36 in 10.0 mi SSE 6.9 mph - N/A   Clear
8:55 PM 57.2 °F 53.6 °F 88% 30.36 in 10.0 mi SSE 5.8 mph - N/A   Clear
9:15 PM 57.2 °F 53.6 °F 88% 30.37 in 10.0 mi SSE 4.6 mph - N/A   Clear
9:35 PM 55.4 °F 53.6 °F 94% 30.37 in 10.0 mi South 5.8 mph - N/A   Clear
9:55 PM 55.4 °F 53.6 °F 94% 30.37 in 10.0 mi SSE 8.1 mph - N/A   Clear
10:15 PM 55.4 °F 51.8 °F 88% 30.37 in 10.0 mi SSE 6.9 mph - N/A   Clear
10:35 PM 53.6 °F 53.6 °F 100% 30.38 in 10.0 mi SSE 5.8 mph - N/A   Clear
10:55 PM 53.6 °F 51.8 °F 94% 30.37 in 10.0 mi SSE 6.9 mph - N/A   Clear
11:15 PM 53.6 °F 51.8 °F 94% 30.38 in 10.0 mi SSE 6.9 mph - N/A   Clear
11:35 PM 53.6 °F 50.0 °F 88% 30.38 in 10.0 mi SSE 6.9 mph - N/A   Clear
11:55 PM 53.6 °F 50.0 °F 88% 30.38 in 10.0 mi SSE 6.9 mph - N/A   Clear